Location: Park Creek Village Mobile Home Park
(38.2885°N, 122.4714°W)
Time: 05:42:46
(UTC+00:00)

ATLAS 3B R/B - Pass Details

Date: 14 December 2019
Orbit: 1027 x 1168 km, 63.8° (Epoch: 16 January)

Event Time Altitude Azimuth Distance (km) Brightness Sun altitude
Rises 14:17:28 0° 197° (SSW) 3,833 5.7 -11.7°
Reaches altitude 10° 14:20:10 10° 194° (SSW) 2,864 5.0 -11.2°
Maximum altitude 14:26:44 58° 117° (ESE) 1,197 3.4 -10.0°
Drops below altitude 10° 14:33:13 10° 40° (NE) 2,827 5.2 -8.9°
Sets 14:35:51 0° 37° (NE) 3,781 5.8 -8.4°
